Simultaneous Nadir Overpasses (SNOs) Predictions

Prediction of SNOs between GOES-16 and NOAA-19 Satellite Orbit:

Table of predicted SNOs for the next 14.0 days since TLE Epoch: 5/4/2024
Index Date Time (GOES-16) GOES-16 Lat,Lon NOAA-19 Lat,Lon Distance(km) Time Diff (sec)
1 05/06/2024 02:22:46 -0.05, -75.21 -0.54, -77.27 235.84 80
2 05/07/2024 02:07:51 -0.05, -75.21 0.19, -74.30 104.97 80
3 05/08/2024 01:55:36 -0.05, -75.22 0.86, -71.32 445.73 80
4 05/09/2024 14:27:16 0.04, -75.25 0.91, -78.92 419.62 80
5 05/10/2024 14:15:02 0.04, -75.25 0.19, -75.94 78.70 80
6 05/11/2024 14:05:26 0.03, -75.27 -0.47, -72.96 262.37 80
7 05/14/2024 02:25:07 -0.02, -75.29 -0.58, -77.65 269.96 80
8 05/15/2024 02:10:12 -0.02, -75.31 0.11, -74.67 72.03 80
9 05/16/2024 01:57:56 -0.02, -75.33 0.80, -71.69 414.22 80
10 05/17/2024 14:29:38 0.02, -75.37 0.94, -79.30 449.62 80
